Location: Unspecified
(0.0000°N, 0.0000°E)
Time: 14:17:10
(UTC+00:00)

N. Korean satellite - Pass Details

Date: 17 September 2019
Orbit: 455 x 509 km, 97.2° (Epoch: 17 September)

Event Time Altitude Azimuth Distance (km) Brightness Sun altitude
Rises 04:52:34 0° 39° (NE) 2,461 10.8 -15.5°
Reaches altitude 10° 04:55:09 10° 61° (ENE) 1,598 10.2 -14.9°
Maximum altitude 04:57:23 16° 101° (ESE) 1,263 9.8 -14.3°
Drops below altitude 10° 04:59:38 10° 142° (SE) 1,617 9.7 -13.8°
Sets 05:02:15 0° 164° (SSE) 2,507 10.4 -13.1°
